User: anonymous   Login
Location: Unspecified
(0.0000°N, 0.0000°E)
Time: 01:23:12
(UTC+02:00)
Language:

Cosmos 1515 Rocket - Orbit

View from above orbital plane
View from above orbital plane
View from above satellite
View from above satellite

Ground track
Ground track

The orbit data is extracted from the following two-line orbital elements,

1 14552U 83122B   15214.86060206  .00000220  00000-0  24005-4 0  9993
2 14552 082.5255 357.1827 0015841 254.0226 105.9244 14.83213527707734
Epoch (UTC): 02 August 2015 20:39:16
Eccentricity: 0.0015841
inclination: 82.5255°
perigee height: 608 km
apogee height: 630 km
right ascension of ascending node: 357.1827°
argument of perigee: 254.0226°
revolutions per day: 14.83213527
mean anomaly at epoch: 105.9244°
orbit number at epoch: 70773

The dashed part of the orbit path shows where the satellite is in the earth's shadow,  

DLR